{"data":{"norad_id":60386,"epoch":"2026-09-22T21:19:42.668256Z","epoch_age_seconds":77298,"freshness":"FRESH","line1":"1 60386U 24140H   26265.88868829  .00000034  00000+0  33951-4 0  9993","line2":"2 60386  88.9670 269.7768 0018728  96.4916 263.8369 13.51026126105717","mean_motion":13.51026126,"eccentricity":0.0018728,"inclination_deg":88.967,"raan_deg":269.7768,"arg_perigee_deg":96.4916,"mean_anomaly_deg":263.8369,"bstar":3.3951e-5,"rev_number":10571,"period_min":106.58565162344,"perigee_km":1054.5395475938,"apogee_km":1082.4316171383,"semimajor_km":7446.622582366,"source":"CELESTRAK","updated_at":"2026-09-23T09:00:20.598583Z"}}